This demonstration page uses our WeatherBlox Daily Observations layout. Learn more.

Left ArrowRight Arrow

53.62937, 11.41316

Hourly Observations for November 4, 2021

Temp ( °F °C ) Dew Point ( °F °C ) Humidity (%) Winds ( mph kmh ) Pressure ( in mb ) Visibility ( mi km ) Precip ( " mm )
12:20 am 00:20 Mostly Cloudy 43 6 43 6 100 100 VRB 2 4 29.65 1004 3 5 N/A
12:50 am 00:50 Partly Cloudy 45 7 43 6 93 93 E 3 6 29.65 1004 3 4 N/A
1:20 am 01:20 Partly Cloudy 43 6 43 6 100 100 NE 3 6 29.65 1004 3 5 N/A
1:50 am 01:50 Mostly Clear 43 6 43 6 100 100 NE 3 6 29.65 1004 3 5 N/A
2:20 am 02:20 Mostly Cloudy 45 7 43 6 93 93 ENE 3 6 29.65 1004 3 5 N/A
2:50 am 02:50 Mostly Cloudy 45 7 43 6 93 93 NE 5 7 29.62 1003 3 5 N/A
3:20 am 03:20 Mostly Cloudy 45 7 43 6 93 93 NNE 5 7 29.62 1003 3 5 N/A
3:50 am 03:50 Mostly Cloudy 45 7 43 6 93 93 NNE 3 6 29.62 1003 3 5 N/A
4:20 am 04:20 Mostly Cloudy 45 7 45 7 100 100 NNE 5 7 29.62 1003 3 5 N/A
4:50 am 04:50 Mostly Cloudy 45 7 43 6 93 93 NE 6 9 29.62 1003 4 7 N/A
5:20 am 05:20 Mostly Cloudy 45 7 43 6 93 93 NE 7 11 29.62 1003 5 8 N/A
5:50 am 05:50 Mostly Clear 45 7 43 6 93 93 NE 6 9 29.62 1003 30 48 N/A
6:20 am 06:20 Mostly Cloudy with Light Rain 45 7 43 6 93 93 NNE 5 7 29.62 1003 30 48 N/A
6:50 am 06:50 Mostly Cloudy with Light Rain 45 7 43 6 93 93 NE 3 6 29.62 1003 5 8 N/A
7:20 am 07:20 Mostly Cloudy with Light Rain 45 7 43 6 93 93 NE 5 7 29.62 1003 5 8 N/A
7:50 am 07:50 Mostly Cloudy with Light Rain 45 7 43 6 93 93 NNE 6 9 29.62 1003 30 48 N/A
8:20 am 08:20 Partly Cloudy with Light Rain 45 7 45 7 100 100 N 7 11 29.62 1003 30 48 N/A
8:50 am 08:50 Partly Cloudy with Light Rain 46 8 45 7 93 93 N 7 11 29.62 1003 30 48 N/A
9:20 am 09:20 Partly Cloudy with Light Rain 46 8 45 7 93 93 N 7 11 29.62 1003 30 48 N/A
9:50 am 09:50 Partly Cloudy with Drizzle 46 8 46 8 100 100 N 6 9 29.62 1003 4 7 N/A
10:20 am 10:20 Mostly Sunny 46 8 46 8 100 100 N 7 11 29.62 1003 5 8 N/A
10:50 am 10:50 Partly Cloudy 48 9 46 8 94 94 NNW 6 9 29.59 1002 6 9 N/A
11:20 am 11:20 Mostly Cloudy with Drizzle 48 9 46 8 94 94 N 7 11 29.59 1002 6 9 N/A
11:50 am 11:50 Mostly Cloudy 48 9 46 8 94 94 N 8 13 29.59 1002 30 48 N/A
12:20 pm 12:20 Mostly Cloudy 48 9 46 8 94 94 N 8 13 29.59 1002 30 48 N/A
12:50 pm 12:50 Mostly Cloudy 48 9 46 8 94 94 NNW 8 13 29.59 1002 30 48 N/A
1:20 pm 13:20 Mostly Cloudy 48 9 46 8 94 94 NNW 9 15 29.59 1002 30 48 N/A
1:50 pm 13:50 Mostly Cloudy with Drizzle 48 9 46 8 94 94 NNW 12 19 29.56 1001 6 9 N/A
2:20 pm 14:20 Mostly Cloudy with Light Rain 48 9 46 8 94 94 NNW 12 19 29.56 1001 6 9 N/A
2:50 pm 14:50 Partly Cloudy with Light Rain 48 9 45 7 87 87 NNW 12 19 29.56 1001 6 9 N/A
3:20 pm 15:20 Mostly Cloudy with Light Rain 48 9 45 7 87 87 NNW 9 15 29.59 1002 6 9 N/A
3:50 pm 15:50 Mostly Cloudy with Light Rain 48 9 45 7 87 87 NNW 12 19 29.59 1002 5 8 N/A
4:20 pm 16:20 Mostly Cloudy with Light Rain 48 9 46 8 94 94 NNW 9 15 29.59 1002 6 9 N/A
4:50 pm 16:50 Mostly Cloudy with Light Rain 46 8 45 7 93 93 NNW 9 15 29.59 1002 6 9 N/A
5:20 pm 17:20 Mostly Cloudy with Rain 46 8 45 7 93 93 NW 9 15 29.59 1002 4 7 N/A
5:50 pm 17:50 Mostly Cloudy with Light Rain 46 8 45 7 93 93 NNW 10 17 29.62 1003 5 8 N/A
6:20 pm 18:20 Mostly Cloudy with Rain 46 8 45 7 93 93 NW 9 15 29.62 1003 4 7 N/A
6:50 pm 18:50 Mostly Cloudy with Light Rain 46 8 45 7 93 93 NW 9 15 29.62 1003 5 8 N/A
7:20 pm 19:20 Mostly Cloudy with Light Rain 46 8 45 7 93 93 NW 9 15 29.62 1003 30 48 N/A
7:50 pm 19:50 Mostly Cloudy with Rain 46 8 45 7 93 93 WNW 8 13 29.65 1004 4 6 N/A
8:20 pm 20:20 Mostly Cloudy with Light Rain 46 8 45 7 93 93 WNW 8 13 29.65 1004 4 7 N/A
8:50 pm 20:50 Mostly Cloudy with Light Rain 46 8 45 7 93 93 NW 9 15 29.65 1004 30 48 N/A
9:20 pm 21:20 Partly Cloudy 46 8 45 7 93 93 NW 10 17 29.68 1005 30 48 N/A
9:50 pm 21:50 Mostly Cloudy 46 8 45 7 93 93 WNW 10 17 29.68 1005 30 48 N/A
10:20 pm 22:20 Mostly Cloudy 46 8 45 7 93 93 WNW 12 19 29.71 1006 30 48 N/A
10:50 pm 22:50 Partly Cloudy 46 8 45 7 93 93 WNW 9 15 29.71 1006 30 48 N/A
11:20 pm 23:20 Mostly Cloudy 46 8 45 7 93 93 W 10 17 29.71 1006 6 9 N/A
11:50 pm 23:50 Mostly Cloudy 46 8 45 7 93 93 W 9 15 29.74 1007 30 48 N/A

Powered by AerisWeather